Simultaneous Nadir Overpasses (SNOs) Predictions

Prediction of SNOs between NOAA-20 and AQUA Satellite Orbit:

Table of predicted SNOs for the next 14.0 days since TLE Epoch: 1/10/2025
Index Date (NOAA-20) Time (NOAA-20) Lat,Lon (NOAA-20) SZA (NOAA-20 ) Date (AQUA) Time (AQUA) Lat,Lon (AQUA) SZA (AQUA ) Distance(km) Time Diff (sec)
1 01/12/2025 03:13:05 81.32, 61.72 108.71 01/12/2025 03:14:15 81.32, 61.54 108.69 2.94 70
2 01/12/2025 04:03:51 -81.32,-131.18 71.28 01/12/2025 04:03:35 -81.31,-131.06 71.29 2.13 16
3 01/14/2025 14:25:32 81.32,-106.30 108.30 01/14/2025 14:25:24 81.31,-106.44 108.32 2.52 8
4 01/17/2025 00:47:14 -81.32, -81.47 72.17 01/17/2025 00:47:11 -81.32, -81.54 72.15 1.50 3
5 01/19/2025 11:08:56 81.32, -57.11 107.40 01/19/2025 11:08:58 81.31, -57.28 107.42 2.99 2
6 01/21/2025 21:30:39 -81.32, -32.77 73.07 01/21/2025 21:30:43 -81.31, -32.61 73.10 2.83 4



Historial Predications of SNOs between NOAA-20 and AQUA
